| time (UTC) | temp F | wind direction | speed knots | gust knots | rain 1hr in | rain 24hr in | rain mn in | humidity % | barometer mb |
| 20260508051727 | 32 | 278 | 0.0 | 0.0 | 0.00 | 0.00 | 0.00 | 98 | 1063.9 |
| 20260508050725 | 32 | 286 | 0.0 | 0.0 | 0.00 | 0.00 | 0.00 | 98 | 1063.9 |
| 20260508045723 | 31 | 282 | 0.0 | 0.0 | 0.00 | 0.00 | 0.00 | 98 | 1063.8 |
| 20260508044719 | 31 | 278 | 0.0 | 0.0 | 0.00 | 0.00 | 0.00 | 98 | 1063.8 |
| 20260508043717 | 31 | 277 | 0.0 | 0.0 | 0.00 | 0.00 | 0.00 | 98 | 1064.1 |
| 20260508042717 | 30 | 287 | 0.9 | 0.9 | 0.00 | 0.00 | 0.00 | 98 | 1063.7 |
| 20260508041717 | 31 | 285 | 0.9 | 0.9 | 0.00 | 0.00 | 0.00 | 97 | 1063.6 |
| 20260508040716 | 31 | 287 | 0.9 | 0.9 | 0.00 | 0.00 | 0.00 | 97 | 1063.7 |
| 20260508035711 | 32 | 307 | 0.9 | 0.9 | 0.00 | 0.03 | 0.03 | 96 | 1063.5 |
| 20260508034710 | 31 | 289 | 0.9 | 0.9 | 0.00 | 0.03 | 0.03 | 94 | 1063.7 |
| 20260508033710 | 32 | 292 | 0.9 | 0.9 | 0.00 | 0.03 | 0.03 | 93 | 1063.6 |
| 20260508032706 | 32 | 271 | 0.0 | 0.9 | 0.00 | 0.03 | 0.03 | 92 | 1063.5 |
| 20260508031706 | 33 | 270 | 0.0 | 0.0 | 0.00 | 0.03 | 0.03 | 91 | 1063.9 |
| 20260508030704 | 33 | 279 | 0.0 | 0.0 | 0.00 | 0.03 | 0.03 | 91 | 1063.7 |
| 20260508025704 | 33 | 277 | 0.0 | 0.0 | 0.00 | 0.03 | 0.03 | 91 | 1063.7 |
| 20260508024702 | 34 | 293 | 0.9 | 0.9 | 0.00 | 0.03 | 0.03 | 89 | 1063.6 |
| 20260508023701 | 35 | 284 | 0.9 | 0.9 | 0.00 | 0.03 | 0.03 | 90 | 1063.5 |
| 20260508022700 | 36 | 291 | 0.9 | 0.9 | 0.00 | 0.03 | 0.03 | 87 | 1063.6 |
| 20260508021700 | 36 | 276 | 0.0 | 0.9 | 0.00 | 0.03 | 0.03 | 84 | 1063.9 |
| 20260508020659 | 37 | 277 | 0.0 | 0.9 | 0.00 | 0.03 | 0.03 | 84 | 1063.7 |
| 20260508015654 | 37 | 280 | 0.0 | 0.0 | 0.00 | 0.03 | 0.03 | 81 | 1063.7 |
| 20260508014653 | 37 | 274 | 0.0 | 0.0 | 0.00 | 0.03 | 0.03 | 81 | 1063.8 |
| 20260508013652 | 38 | 291 | 0.9 | 0.9 | 0.00 | 0.03 | 0.03 | 82 | 1063.8 |
| 20260508012646 | 38 | 281 | 0.0 | 0.9 | 0.00 | 0.03 | 0.03 | 77 | 1063.9 |
| 20260508011641 | 39 | 281 | 0.9 | 0.9 | 0.00 | 0.03 | 0.03 | 77 | 1063.7 |
| 20260508010641 | 39 | 278 | 0.0 | 0.9 | 0.00 | 0.03 | 0.03 | 75 | 1063.7 |
| 20260508005641 | 40 | 278 | 0.9 | 0.9 | 0.00 | 0.03 | 0.03 | 74 | 1063.5 |
| 20260508004639 | 40 | 275 | 0.0 | 0.0 | 0.00 | 0.03 | 0.03 | 73 | 1063.5 |
| 20260508003639 | 41 | 264 | 0.0 | 0.9 | 0.00 | 0.03 | 0.03 | 73 | 1063.3 |
| 20260508002638 | 42 | 276 | 0.0 | 0.0 | 0.00 | 0.03 | 0.03 | 74 | 1063.1 |
| 20260508001637 | 43 | 277 | 0.0 | 0.0 | 0.00 | 0.03 | 0.03 | 68 | 1062.8 |
| 20260508000635 | 44 | 287 | 0.9 | 1.7 | 0.00 | 0.03 | 0.03 | 61 | 1063.0 |
| 20260507235635 | 44 | 279 | 0.0 | 0.0 | 0.00 | 0.03 | 0.03 | 59 | 1063.1 |
| 20260507234635 | 45 | 296 | 1.7 | 2.6 | 0.00 | 0.03 | 0.03 | 58 | 1063.1 |
| 20260507233635 | 45 | 304 | 2.6 | 2.6 | 0.00 | 0.03 | 0.03 | 56 | 1063.3 |
| 20260507232635 | 46 | 285 | 0.9 | 0.9 | 0.00 | 0.03 | 0.03 | 55 | 1063.1 |
| 20260507231635 | 46 | 301 | 2.6 | 2.6 | 0.00 | 0.03 | 0.03 | 54 | 1063.2 |
| 20260507230634 | 46 | 285 | 0.0 | 0.0 | 0.00 | 0.03 | 0.03 | 54 | 1063.3 |
| 20260507225631 | 47 | 313 | 2.6 | 2.6 | 0.00 | 0.03 | 0.03 | 54 | 1063.5 |
| 20260507224629 | 47 | 265 | 1.7 | 1.7 | 0.00 | 0.03 | 0.03 | 54 | 1063.3 |
| 20260507223628 | 47 | 303 | 1.7 | 1.7 | 0.00 | 0.03 | 0.03 | 53 | 1063.3 |
| 20260507222627 | 47 | 12 | 3.5 | 5.2 | 0.00 | 0.03 | 0.03 | 51 | 1063.1 |
| 20260507221626 | 48 | 333 | 4.3 | 5.2 | 0.00 | 0.03 | 0.03 | 52 | 1063.4 |
| 20260507220626 | 47 | 309 | 1.7 | 1.7 | 0.00 | 0.03 | 0.03 | 53 | 1063.5 |
| 20260507215625 | 48 | 315 | 1.7 | 1.7 | 0.00 | 0.03 | 0.03 | 52 | 1063.4 |
| 20260507214625 | 48 | 342 | 5.2 | 6.1 | 0.00 | 0.03 | 0.03 | 51 | 1063.3 |
| 20260507213624 | 47 | 316 | 3.5 | 5.2 | 0.00 | 0.03 | 0.03 | 52 | 1063.2 |
| 20260507212623 | 47 | 319 | 4.3 | 6.1 | 0.00 | 0.03 | 0.03 | 53 | 1063.5 |
| 20260507211622 | 48 | 337 | 7.0 | 8.7 | 0.00 | 0.03 | 0.03 | 51 | 1063.5 |
| 20260507210621 | 47 | 286 | 1.7 | 2.6 | 0.00 | 0.03 | 0.03 | 54 | 1063.3 |
| 20260507205620 | 49 | 310 | 7.0 | 7.8 | 0.00 | 0.03 | 0.03 | 49 | 1063.2 |
| 20260507204618 | 48 | 314 | 7.0 | 7.8 | 0.00 | 0.03 | 0.03 | 48 | 1063.4 |
| 20260507203614 | 47 | 249 | 6.1 | 7.8 | 0.00 | 0.03 | 0.03 | 50 | 1063.2 |
| 20260507202612 | 49 | 314 | 4.3 | 6.1 | 0.00 | 0.03 | 0.03 | 49 | 1063.4 |
| 20260507201610 | 50 | 303 | 3.5 | 4.3 | 0.00 | 0.03 | 0.03 | 49 | 1063.0 |
| 20260507200608 | 48 | 348 | 4.3 | 6.1 | 0.00 | 0.03 | 0.03 | 52 | 1063.3 |
| 20260507195608 | 48 | 273 | 0.9 | 0.9 | 0.00 | 0.03 | 0.03 | 51 | 1063.4 |
| 20260507194607 | 49 | 227 | 9.6 | 13.0 | 0.00 | 0.03 | 0.03 | 50 | 1063.3 |
| 20260507193606 | 48 | 298 | 7.0 | 7.8 | 0.00 | 0.03 | 0.03 | 51 | 1063.5 |
| 20260507192605 | 47 | 332 | 4.3 | 5.2 | 0.00 | 0.03 | 0.03 | 51 | 1063.6 |
| 20260507191603 | 48 | 274 | 3.5 | 4.3 | 0.00 | 0.03 | 0.03 | 53 | 1063.8 |
| 20260507190603 | 48 | 230 | 5.2 | 7.8 | 0.00 | 0.03 | 0.03 | 53 | 1063.8 |
| 20260507185600 | 48 | 303 | 3.5 | 5.2 | 0.00 | 0.03 | 0.03 | 53 | 1064.1 |
| 20260507184555 | 47 | 305 | 3.5 | 4.3 | 0.00 | 0.03 | 0.03 | 53 | 1063.8 |
| 20260507183554 | 48 | 340 | 4.3 | 5.2 | 0.00 | 0.03 | 0.03 | 57 | 1063.9 |
| 20260507182553 | 49 | 323 | 2.6 | 4.3 | 0.00 | 0.03 | 0.03 | 57 | 1063.8 |
| 20260507181552 | 46 | 322 | 2.6 | 4.3 | 0.00 | 0.03 | 0.03 | 58 | 1064.2 |
| 20260507180551 | 47 | 337 | 2.6 | 2.6 | 0.00 | 0.03 | 0.03 | 56 | 1063.7 |
| 20260507175550 | 46 | 282 | 1.7 | 2.6 | 0.00 | 0.03 | 0.03 | 57 | 1063.8 |
| 20260507174550 | 48 | 244 | 6.1 | 7.8 | 0.00 | 0.03 | 0.03 | 55 | 1063.7 |
| 20260507173545 | 48 | 331 | 4.3 | 5.2 | 0.00 | 0.03 | 0.03 | 58 | 1064.1 |
| 20260507172544 | 47 | 242 | 10.4 | 13.0 | 0.00 | 0.03 | 0.03 | 57 | 1064.1 |
| 20260507171542 | 48 | 320 | 1.7 | 2.6 | 0.00 | 0.03 | 0.03 | 60 | 1064.1 |
| 20260507170542 | 47 | 275 | 2.6 | 2.6 | 0.00 | 0.03 | 0.03 | 62 | 1063.9 |
| 20260507165541 | 45 | 323 | 6.1 | 7.0 | 0.00 | 0.03 | 0.03 | 62 | 1064.2 |
| 20260507164539 | 45 | 299 | 4.3 | 7.0 | 0.00 | 0.03 | 0.03 | 64 | 1064.6 |
| 20260507163534 | 44 | 254 | 1.7 | 2.6 | 0.00 | 0.03 | 0.03 | 67 | 1064.6 |
| 20260507162532 | 44 | 329 | 3.5 | 5.2 | 0.00 | 0.03 | 0.03 | 66 | 1064.7 |
| 20260507161531 | 45 | 28 | 4.3 | 5.2 | 0.00 | 0.03 | 0.03 | 64 | 1064.5 |
| 20260507160530 | 44 | 298 | 2.6 | 4.3 | 0.00 | 0.03 | 0.03 | 66 | 1064.5 |
| 20260507155528 | 43 | 341 | 3.5 | 4.3 | 0.00 | 0.03 | 0.03 | 68 | 1064.6 |
| 20260507154527 | 44 | 28 | 2.6 | 4.3 | 0.00 | 0.03 | 0.03 | 69 | 1064.7 |
| 20260507153528 | 42 | 335 | 2.6 | 4.3 | 0.00 | 0.03 | 0.03 | 68 | 1065.0 |
| 20260507152525 | 43 | 293 | 2.6 | 4.3 | 0.00 | 0.03 | 0.03 | 69 | 1064.9 |
| 20260507151524 | 42 | 297 | 1.7 | 1.7 | 0.00 | 0.03 | 0.03 | 73 | 1065.2 |
| 20260507150524 | 42 | 278 | 0.9 | 1.7 | 0.00 | 0.03 | 0.03 | 71 | 1065.0 |
| 20260507145521 | 42 | 314 | 4.3 | 5.2 | 0.00 | 0.03 | 0.03 | 69 | 1065.2 |
| 20260507144516 | 42 | 250 | 5.2 | 7.0 | 0.00 | 0.03 | 0.03 | 70 | 1064.9 |
| 20260507143511 | 42 | 303 | 4.3 | 5.2 | 0.00 | 0.03 | 0.03 | 71 | 1065.1 |
| 20260507142509 | 42 | 348 | 2.6 | 4.3 | 0.00 | 0.03 | 0.03 | 69 | 1065.2 |
| 20260507141508 | 43 | 265 | 5.2 | 6.1 | 0.00 | 0.03 | 0.03 | 69 | 1064.8 |
| 20260507140508 | 43 | 285 | 5.2 | 8.7 | 0.00 | 0.03 | 0.03 | 69 | 1064.8 |
| 20260507135508 | 43 | 254 | 7.8 | 7.8 | 0.00 | 0.03 | 0.03 | 69 | 1064.8 |
| 20260507134508 | 42 | 321 | 2.6 | 2.6 | 0.00 | 0.03 | 0.03 | 71 | 1064.9 |
| 20260507133505 | 42 | 329 | 4.3 | 7.0 | 0.00 | 0.03 | 0.03 | 70 | 1064.7 |
| 20260507132500 | 42 | 272 | 1.7 | 1.7 | 0.00 | 0.03 | 0.03 | 72 | 1064.6 |
| 20260507131459 | 42 | 7 | 4.3 | 5.2 | 0.00 | 0.03 | 0.03 | 72 | 1064.7 |
| 20260507130458 | 41 | 319 | 4.3 | 6.1 | 0.00 | 0.03 | 0.03 | 76 | 1064.8 |
| 20260507125455 | 40 | 348 | 4.3 | 5.2 | 0.00 | 0.03 | 0.03 | 77 | 1064.5 |
| 20260507124454 | 39 | 267 | 2.6 | 2.6 | 0.00 | 0.03 | 0.03 | 80 | 1064.8 |
| 20260507123455 | 39 | 283 | 0.9 | 0.9 | 0.00 | 0.03 | 0.03 | 83 | 1064.5 |
| 20260507122452 | 38 | 285 | 0.0 | 0.9 | 0.00 | 0.03 | 0.03 | 82 | 1064.5 |
| 20260507121450 | 38 | 259 | 2.6 | 2.6 | 0.00 | 0.03 | 0.03 | 82 | 1064.8 |
| 20260507120449 | 38 | 284 | 0.9 | 0.9 | 0.00 | 0.03 | 0.03 | 83 | 1064.7 |
| 20260507115448 | 38 | 266 | 0.0 | 0.0 | 0.00 | 0.03 | 0.03 | 84 | 1064.6 |
| 20260507114445 | 37 | 315 | 1.7 | 1.7 | 0.00 | 0.03 | 0.03 | 85 | 1064.9 |
| 20260507113445 | 36 | 269 | 0.0 | 0.0 | 0.00 | 0.03 | 0.03 | 86 | 1065.1 |
| 20260507112440 | 36 | 296 | 0.9 | 0.9 | 0.00 | 0.03 | 0.03 | 89 | 1065.0 |
| 20260507111440 | 35 | 294 | 0.9 | 0.9 | 0.00 | 0.03 | 0.03 | 94 | 1064.9 |
| 20260507110438 | 34 | 278 | 0.0 | 0.0 | 0.00 | 0.03 | 0.03 | 98 | 1065.2 |
| 20260507105438 | 33 | 285 | 0.0 | 0.0 | 0.00 | 0.03 | 0.03 | 99 | 1065.0 |
| 20260507104437 | 33 | 272 | 0.0 | 0.0 | 0.00 | 0.03 | 0.03 | 99 | 1064.8 |
| 20260507103435 | 32 | 266 | 0.0 | 0.0 | 0.00 | 0.03 | 0.03 | 99 | 1064.8 |
| 20260507102434 | 32 | 279 | 0.9 | 0.9 | 0.00 | 0.03 | 0.03 | 99 | 1064.8 |
| 20260507101431 | 31 | 276 | 0.0 | 0.0 | 0.00 | 0.03 | 0.03 | 99 | 1064.7 |
| 20260507100431 | 31 | 276 | 0.0 | 0.9 | 0.00 | 0.03 | 0.03 | 99 | 1064.7 |
| 20260507095427 | 31 | 275 | 0.0 | 0.0 | 0.00 | 0.03 | 0.03 | 99 | 1064.8 |
| 20260507094426 | 32 | 269 | 0.0 | 0.0 | 0.00 | 0.03 | 0.03 | 99 | 1064.7 |
| 20260507093421 | 32 | 261 | 0.0 | 0.9 | 0.00 | 0.03 | 0.03 | 99 | 1064.8 |
| 20260507092420 | 32 | 266 | 0.0 | 0.0 | 0.00 | 0.03 | 0.03 | 99 | 1064.6 |
| 20260507091420 | 33 | 264 | 0.0 | 0.9 | 0.00 | 0.03 | 0.03 | 99 | 1064.8 |
| 20260507090418 | 33 | 269 | 0.0 | 0.0 | 0.00 | 0.03 | 0.03 | 99 | 1064.3 |
| 20260507085418 | 33 | 269 | 0.9 | 0.9 | 0.00 | 0.03 | 0.03 | 99 | 1064.7 |
| 20260507084417 | 33 | 244 | 2.6 | 2.6 | 0.00 | 0.03 | 0.03 | 99 | 1064.7 |
| 20260507083417 | 34 | 261 | 0.9 | 0.9 | 0.00 | 0.03 | 0.03 | 99 | 1064.6 |
| 20260507082415 | 34 | 277 | 0.0 | 0.9 | 0.00 | 0.03 | 0.03 | 99 | 1064.8 |
| 20260507081414 | 35 | 274 | 0.0 | 0.0 | 0.00 | 0.03 | 0.03 | 99 | 1064.7 |
| 20260507080413 | 35 | 266 | 0.0 | 0.0 | 0.00 | 0.03 | 0.03 | 98 | 1064.3 |
| 20260507075410 | 35 | 249 | 1.7 | 1.7 | 0.00 | 0.03 | 0.03 | 98 | 1064.2 |
| 20260507074410 | 36 | 269 | 0.0 | 0.9 | 0.00 | 0.03 | 0.03 | 98 | 1064.4 |
| 20260507073410 | 36 | 241 | 1.7 | 1.7 | 0.00 | 0.03 | 0.03 | 99 | 1064.3 |
| 20260507072404 | 37 | 267 | 0.9 | 0.9 | 0.00 | 0.03 | 0.03 | 99 | 1064.2 |
| 20260507071404 | 37 | 263 | 2.6 | 2.6 | 0.00 | 0.03 | 0.03 | 99 | 1063.9 |
| 20260507070404 | 38 | 268 | 0.9 | 0.9 | 0.00 | 0.03 | 0.03 | 99 | 1064.1 |
| 20260507065403 | 38 | 254 | 1.7 | 1.7 | 0.00 | 0.03 | 0.03 | 99 | 1064.2 |
| 20260507064359 | 38 | 269 | 0.9 | 0.9 | 0.00 | 0.03 | 0.03 | 99 | 1064.3 |
| 20260507063359 | 38 | 273 | 0.9 | 0.9 | 0.00 | 0.03 | 0.03 | 99 | 1064.2 |
| 20260507062358 | 38 | 269 | 0.9 | 0.9 | 0.00 | 0.03 | 0.03 | 99 | 1064.3 |
| 20260507061354 | 38 | 270 | 0.0 | 0.0 | 0.00 | 0.03 | 0.03 | 99 | 1064.2 |
| 20260507060355 | 38 | 273 | 0.0 | 0.0 | 0.00 | 0.03 | 0.03 | 99 | 1064.2 |
| 20260507055352 | 39 | 295 | 1.7 | 1.7 | 0.00 | 0.03 | 0.03 | 99 | 1064.3 |
| 20260507054351 | 39 | 320 | 2.6 | 2.6 | 0.07 | 0.03 | 0.03 | 99 | 1064.3 |
| 20260507053347 | 40 | 312 | 0.9 | 0.9 | 0.00 | 0.02 | 0.02 | 99 | 1064.2 |